Terminal Aerodrome Forecast
Issued by NWS

Current Version | Previous Version | Graphics & Text | Print | Product List | Glossary On
Versions: 1 2 3 4 5 6 7 8 9 10 11 12 13 14 15 16 17 18 19 20 21 22 23 24 25 26 27 28 29 30 31
000
FTUS41 KPBZ 222300 CCA
TAFHLG
TAF COR
KHLG 222356Z 2300/2324 VRB04KT 2SM BR VCSH BKN035
     FM230200 VRB03KT 5SM BR SCT035
     FM230800 VRB03KT 2SM BR SCT005
     FM231400 06005KT P6SM BKN015
     FM231700 05005KT P6SM BKN040=

USA.gov is the U.S. government's official web portal to all federal, state and local government web resources and services.